sat.trackr.live / text

‹ back to catalog

STARLINK-2486

NORAD 48143 · 2021-027BD

PAYLOAD ACTIVE UNKNOWN

§ Identity

Operator
Country
US
Launch date
2021-04-07
Launch site
AFETR
Launch vehicle
Mass (kg)
RCS (m²)

Purposes: comms

External: N2YO · Heavens-Above · Gunter

§ Orbital elements

Epoch: 2026-05-25T02:26:57.127776Z

Period
93.69 min
Inclination
53.1567°
Eccentricity
0.0005858
Mean motion
15.36939831 rev/d
Perigee alt
451.2 km
Apogee alt
459.2 km
Semi-major
6,833.3 km
B*
1.2637e-3
RAAN
104.3635°
Arg perigee
46.4014°
Mean anomaly
313.7475°
Rev number
28,513

§ Raw data

STARLINK-24861 48143U 21027BD  26145.10205009  .00046235  00000+0  12637-2 0  99972 48143  53.1567 104.3635 0005858  46.4014 313.7475 15.36939831285133

JSON: /api/v1/satellites/48143 · /tle

For live sub-satellite position, see the globe view (requires WebGL).

§ Visibility from observer

Set your observer location to see the next 7 days of passes ≥ 10°. The values pass through the URL so the page stays shareable.

No JS? Fill the form by hand. The geolocation button needs JavaScript.